SL-19 DEB, 23482

Orbit data source: Space-Track

SL-19 DEB, 23482 is space debris in LEO originally from a launch on Mon, 26 Dec 1994 UTC launched from the Tyuratam Missile And Space Complex (TTMTR). Debris objects in space refer to the collection of defunct objects orbiting the Earth. Examples of debris include non-operational satellites, rocket bodies, and fragments generated from explosions, collisions, or faulty payload assembly.

Loading next visibility...
Identifier
23482, 1994-085E
Orbit
LEO
Last TLE update
2 days ago
Origin
Manufacturer
Unknown
Mission
Spacecraft
Bus & Motor
Unknown
Mass
Unknown
Launch date (UTC)
1994-12-26 (31 years ago)
Launch vehicle
Unknown
Launch site
Tyuratam Missile And Space Complex (TTMTR)
Object type
Payload
Rocket body
Debris
Shape & HBR
Unknown
Radar Cross Section
Medium (>0.1 m² and <1 m²)

Expand to show TLE details & history

TLE from 2 days ago
0 SL-19 DEB
1 23482U 94085E   25181.98610128  .00000245  00000-0  67718-2 0  9999
2 23482  64.6917  90.5995 0402924 236.5370 221.2764 11.30901844256747
Epoch: 2025-06-30T23:39Z
TLE epoch observation values (Epoch: 2025-06-30T23:39:59.15Z)
Latitude
64.35534°
Longitude
-82.37904°
Altitude
2,275.586 km
Speed
6.688 km/s
True Right ascension
12h 47m 37s
True Declination
64° 14' 40"
Sunlit
Object was in daylight at epoch
Visualization orbit readout
Latitude
-1.1018°
Longitude
-6.68227°
Altitude
1,805.261 km
Speed
7.064 km/s
Apparent Right ascension
20h 15m 20s
Apparent Declination
-35° 59' 41"
Sunlit
Object is in full shadow
Visualization observer readout
Local Sidereal Time
14:51:59
Azimuth
123.736° SE
Elevation
-16.159°
Doppler factor
1
Orbital elements
Apogee altitude
2,342.455 km
Perigee altitude
1,666.927 km
Semi-major axis
8,382.828 km
Eccentricity
0.04029
Inclination
64.6917°
RAAN
90.5995°
Arg. of periapsis
236.537°
True anomaly
Unknown
Mean anomaly
221.2764°
Eccentric anomaly
Unknown
Mean motion
2.82786 °/min
Orbital period
127.3 mins
BSTAR
0.0067718
Loading maneuver chart data...
Loading SW <> Apogee altitude chart data...
Loading historical data...
Loading historical data...
Loading historical data...
Loading historical data...
Loading historical data...
Loading historical data...
Loading historical data...

SL-19 DEB Visibility forecast

Observer location: undefined°, undefined°

Span
Click to sort rows by Start time (UTC) header in descending order
Start Az.
Max El. time (UTC)
Max El. Az.
Max El.
End time (UTC)
End Az.
22 mins2025-07-03 04:46:51.625Z324.508° NNW2025-07-03 04:58:51.625Z250.897° W43.286°2025-07-03 05:08:51.625Z164.959° S
8 mins2025-07-03 07:04:51.625Z285.853° WNW2025-07-03 07:08:51.625Z264.073° W13.558°2025-07-03 07:12:51.625Z241.908° WSW
16 mins2025-07-03 16:57:51.625Z135.126° SSE2025-07-03 17:04:51.625Z99.046° ESE20.043°2025-07-03 17:13:51.625Z55.237° ENE
24 mins2025-07-03 19:03:51.625Z202.481° SSW2025-07-03 19:14:51.625Z147.085° SSE44.605°2025-07-03 19:27:51.625Z33.959° NE
22 mins2025-07-03 21:18:51.625Z262.195° W2025-07-03 21:28:51.625Z320.448° NNW31.993°2025-07-03 21:40:51.625Z28.551° NE
17 mins2025-07-03 23:38:51.625Z315.462° NNW2025-07-03 23:46:51.625Z357.057° N20.773°2025-07-03 23:55:51.625Z43.886° NE
20 mins2025-07-04 01:54:51.625Z334.369° NNW2025-07-04 02:04:51.625Z32.956° NE28.915°2025-07-04 02:14:51.625Z93.04° ESE
|